Location: Red Deer
(52.2681°N, 113.8112°W)
Time: 01:09:31
(UTC-07:00)

BlueWalker 3 - Pass Details

Date: 09 December 2022
Orbit: 499 x 517 km, 53.2° (Epoch: 29 January)

Event Time Altitude Azimuth Distance (km) Brightness Sun altitude
Rises 19:36:29 0° 283° (WNW) 2,624 6.7 -28.3°
Reaches altitude 10° 19:39:39 10° 256° (WSW) 1,728 5.5 -28.8°
Maximum altitude 19:41:33 13° 226° (SW) 1,527 4.9 -29.1°
Enters shadow 19:42:31 12° 210° (SSW) 1,578 4.8 -29.2°
